Powrót do katalogu

CZ-6A DEB

AktywnyPO
NORAD 54275·DEBRIS·🇨🇳 China

Wystrzelony Nov 11, 2022 z Taiyuan Satellite Launch Center

Loading…

Następne Przeloty (najbliższe 24 godziny)

TLE

ŚwieżeSource: Space-Track

Epoka: Sep 14, 2026, 05:53 UTC

1 54275U 22151S   26257.24514792  .00006330  00000-0  94074-3 0  9999
2 54275  98.8210   6.5692 0073698   2.7593 357.4004 14.73540551203317

Śledź CZ-6A DEB w czasie rzeczywistym z AllMySat

Download on the App Store